Flag for U.S.A. Weather past 2 weeks in Macon, Georgia, U.S.A.

Now
93 °F

Broken clouds.


Feels Like: 102 °F
Forecast: 71 / 91 °F
Wind: 15 mph from Northwest

Location: Middle Georgia Regional Airport

Current Time: Jul 28, 2014 at 4:14:38 PM

Latest Report: Jul 28, 2014 at 3:53 PM


Visibility: 10 mi

Pressure: 29.84 "Hg

Humidity: 52%

Dew point: 73 °F

Location of MaconLocation

Historic Weather in Macon — Graph

°F

Macon temperature yesterday

Maximum temperature yesterday: 94 °F (at 3:53 PM)
Minimum temperature yesterday: 70 °F (at 4:53 AM)
Average temperature yesterday: 82 °F

Past Weeks' High & Low Weather Summary

 TemperatureHumidityPressure
High94 °F (Jul 27, 3:53 PM)100% (Jul 14, 12:53 AM)30.13 "Hg (Jul 14, 12:53 AM)
Low59 °F (Jul 17, 4:53 AM)29% (Jul 16, 4:53 PM)29.81 "Hg (Jul 15, 6:53 PM)
Average78 °F83%29.99 "Hg
* Reported Jul 13 2:53 PM — Jul 28 2:53 PM, Macon, Weather by CustomWeather, © 2014

Note: Actual official high and low records may vary slightly from our data, if they occured in-between our weather recording intervals... More about our weather records

Advertising

Macon weather history for previous 24 hours

 ConditionsComfort  
Time TempWeatherWind HumidityBarometerVisibility
2:53 PM
Jul 28
91 °FScattered clouds.12 mph61%29.87 "Hg10 mi
1:53 PM89 °FBroken clouds.14 mph63%29.89 "Hg10 mi
12:53 PM90 °FScattered clouds.12 mph63%29.91 "Hg10 mi
11:53 AM87 °FBroken clouds.14 mph72%29.92 "Hg10 mi
10:53 AM87 °FPassing clouds.15 mph72%29.92 "Hg10 mi
9:53 AM83 °FSunny.14 mph79%29.92 "Hg10 mi
8:53 AM82 °FSunny.14 mph82%29.92 "Hg10 mi
7:53 AM78 °FSunny.6 mph90%29.92 "Hg10 mi
6:53 AM77 °FClear.6 mph94%29.92 "Hg10 mi
5:53 AM78 °FClear.8 mph90%29.92 "Hg10 mi
4:53 AM78 °FClear.5 mph87%29.92 "Hg10 mi
3:53 AM79 °FPassing clouds.No wind84%29.92 "Hg10 mi
2:53 AM79 °FClear.6 mph84%29.91 "Hg10 mi
1:53 AM81 °FClear.7 mph79%29.92 "Hg10 mi
12:53 AM81 °FClear.3 mph77%29.92 "Hg10 mi
11:53 PM
Jul 27
81 °FClear.5 mph79%29.93 "Hg10 mi
10:53 PM83 °FClear.7 mph74%29.93 "Hg10 mi
9:53 PM83 °FClear.3 mph74%29.94 "Hg10 mi
8:53 PM85 °FSunny.No wind70%29.94 "Hg10 mi
7:53 PM89 °FSunny.6 mph57%29.93 "Hg10 mi
6:53 PM92 °FPassing clouds.8 mph52%29.92 "Hg10 mi
5:53 PM93 °FScattered clouds.8 mph50%29.93 "Hg10 mi
4:53 PM93 °FPassing clouds.8 mph50%29.94 "Hg10 mi
Weather by CustomWeather, © 2014

See weather overviewHow to use our weather pages